Location: Follega
(52.8850°N, 5.7362°E)
Time: 04:20:40
(UTC+00:00)

Cosmos 1242 Rocket - Pass Details

Date: 01 June 2020
Orbit: 447 x 487 km, 81.2° (Epoch: 04 July)

Event Time Altitude Azimuth Distance (km) Brightness Sun altitude
Exits shadow 22:49:25 11° 224° (SW) 1,588 4.8 -14.2°
Maximum altitude 22:52:36 35° 290° (WNW) 805 3.9 -14.3°
Drops below altitude 10° 22:56:02 10° 358° (N) 1,690 6.7 -14.4°
Sets 22:58:17 0° 8° (N) 2,575 7.8 -14.5°
